Location: Echte
(51.7841°N, 10.0629°E)
Time: 00:43:19
(UTC+00:00)

IRIDIUM 104 - Pass Details

Date: 11 December 2025
Orbit: 776 x 779 km, 86.4° (Epoch: 17 April)

Event Time Altitude Azimuth Distance (km) Brightness Sun altitude
Rises 16:36:34 0° 355° (N) 3,273 7.4 -12.5°
Reaches altitude 10° 16:38:56 10° 356° (N) 2,340 6.6 -12.9°
Maximum altitude 16:44:11 87° 86° (E) 786 4.3 -13.6°
Drops below altitude 10° 16:49:24 10° 176° (S) 2,322 7.0 -14.4°
Sets 16:51:44 0° 177° (S) 3,245 7.8 -14.7°
